Date String (YYYY-MM-DD hh:mm:ss) UTC,Instrument flags,Ambient pressure (hPa),Sample flow (lpm),Bypass flow (lpm),Sample temperature (°C),Ambient temperature (°C),ASC tube jacket temperature (°C),LED temperature (°C),Box temperature (°C),Sample RH (%),Span deviation,Mass concentration (μg/m³),Mass concentration (μg/m³),Mass concentration (μg/m³)
DateTimeUTC,F1_M11,P_M11,Q1_M11,Q2_M11,T1_M11,T2_M11,T3_M11,T4_M11,T5_M11,U1_M11,ZSPAN_M11,X0_M11,X2_M11,X1_M11
2021-08-27 23:00:00,,0823.6,5.00,0.00,29.1,28.0,00.0,38.0,31.0,20.2,0002.4,0011.44,0004.94,0004.35
2021-08-27 23:01:00,,0823.7,5.00,0.00,29.2,28.1,00.0,38.0,31.1,20.1,0002.8,0013.93,0004.96,0004.35
2021-08-27 23:02:00,,0823.6,5.01,0.00,29.1,26.8,00.0,38.1,30.7,19.9,0002.7,0014.79,0004.99,0004.34
2021-08-27 23:03:00,,0823.6,4.99,0.00,28.9,25.6,00.0,38.0,30.3,20.3,0002.5,0014.66,0004.99,0004.33
2021-08-27 23:04:00,,0823.6,5.01,0.00,28.9,25.9,00.0,38.0,30.4,20.7,0002.2,0015.95,0005.01,0004.33
2021-08-27 23:05:00,,0823.6,4.99,0.00,28.9,26.3,00.0,38.0,30.5,20.4,0002.3,0016.54,0005.01,0004.34
2021-08-27 23:06:00,,0823.6,5.00,0.00,28.9,26.8,00.0,38.0,30.6,20.2,0002.1,0016.62,0004.99,0004.33
2021-08-27 23:07:00,,0823.6,5.01,0.00,28.9,27.2,00.0,38.0,30.8,19.9,0001.7,0015.60,0004.95,0004.32
2021-08-27 23:08:00,,0823.6,5.00,0.00,29.0,27.6,00.0,38.0,30.9,20.5,0001.2,0015.40,0004.98,0004.31
2021-08-27 23:09:00,,0823.6,4.99,0.00,29.0,27.9,00.0,38.0,31.0,20.1,0001.2,0014.94,0005.00,0004.29
2021-08-27 23:10:00,,0823.6,4.99,0.00,29.1,28.2,00.0,38.0,31.1,20.1,0001.1,0014.91,0005.01,0004.29
2021-08-27 23:11:00,,0823.5,5.00,0.00,29.2,27.8,00.0,38.0,31.0,20.0,0001.0,0014.86,0004.99,0004.29
2021-08-27 23:12:00,,0823.6,5.01,0.00,29.0,26.1,00.0,38.0,30.5,20.6,0000.8,0012.33,0004.92,0004.29
2021-08-27 23:13:00,,0823.5,4.99,0.00,28.9,25.6,00.0,38.0,30.3,20.6,0000.7,0010.94,0004.84,0004.28
2021-08-27 23:14:00,,0823.5,5.00,0.00,28.9,26.1,00.0,38.0,30.4,20.7,0000.6,0011.02,0004.80,0004.27
2021-08-27 23:15:00,,0823.5,5.01,0.00,28.9,26.5,00.0,38.0,30.5,20.5,0000.6,0010.15,0004.76,0004.25
2021-08-27 23:16:00,,0823.5,4.99,0.00,28.9,27.0,00.0,38.0,30.7,20.3,0000.5,0010.23,0004.77,0004.24
2021-08-27 23:17:00,,0823.6,4.99,0.00,28.9,27.4,00.0,38.0,30.8,20.4,0000.7,0010.26,0004.79,0004.24
2021-08-27 23:18:00,,0823.6,5.00,0.00,29.0,27.7,00.0,38.0,30.9,20.6,0001.0,0010.57,0004.80,0004.25
2021-08-27 23:19:00,,0823.6,5.02,0.00,29.1,28.0,00.0,38.0,31.0,20.7,0000.7,0010.70,0004.79,0004.24
2021-08-27 23:20:00,,0823.6,4.99,0.00,29.1,28.3,00.0,38.0,31.1,21.1,0000.6,0010.75,0004.80,0004.25
2021-08-27 23:21:00,,0823.6,5.00,0.00,29.2,28.5,00.0,38.1,31.2,21.5,0000.7,0010.75,0004.79,0004.25
2021-08-27 23:22:00,,0823.6,5.00,0.00,29.2,27.5,00.0,38.1,30.9,21.8,0000.5,0011.06,0004.80,0004.24
2021-08-27 23:23:00,,0823.6,5.01,0.00,29.1,25.9,00.0,38.1,30.5,22.2,0000.3,0011.30,0004.81,0004.23
2021-08-27 23:24:00,,0823.6,5.00,0.00,29.0,25.9,00.0,38.1,30.5,22.6,0000.1,0011.37,0004.85,0004.22
2021-08-27 23:25:00,,0823.6,5.01,0.00,28.9,26.4,00.0,38.0,30.5,22.1,0000.3,0011.00,0004.86,0004.22
2021-08-27 23:26:00,,0823.6,4.99,0.00,28.9,26.8,00.0,38.0,30.7,21.9,0000.6,0010.50,0004.87,0004.24
2021-08-27 23:27:00,,0823.6,5.01,0.00,29.0,27.2,00.0,38.0,30.8,22.3,0000.9,0009.91,0004.88,0004.24
2021-08-27 23:28:00,,0823.6,5.00,0.00,29.0,27.6,00.0,38.0,30.9,22.3,0000.9,0009.68,0004.89,0004.25
2021-08-27 23:29:00,,0823.6,5.00,0.00,29.1,28.0,00.0,38.0,31.0,22.1,0000.9,0009.44,0004.87,0004.25
2021-08-27 23:30:00,,0823.6,5.01,0.00,29.2,28.2,00.0,38.1,31.1,21.7,0000.9,0009.77,0004.88,0004.25
2021-08-27 23:31:00,,0823.6,5.00,0.00,29.2,28.5,00.0,38.1,31.2,21.7,0001.0,0010.07,0004.91,0004.25
2021-08-27 23:32:00,,0823.6,4.99,0.00,29.3,27.7,00.0,38.1,31.0,21.3,0001.2,0010.00,0004.91,0004.26
2021-08-27 23:33:00,,0823.5,5.01,0.00,29.1,26.1,00.0,38.1,30.6,21.0,0001.4,0009.83,0004.91,0004.26
2021-08-27 23:34:00,,0823.4,5.00,0.00,29.0,25.9,00.0,38.1,30.5,21.5,0001.6,0009.62,0004.93,0004.27
2021-08-27 23:35:00,,0823.4,5.00,0.00,29.0,26.3,00.0,38.1,30.6,21.5,0001.6,0009.51,0004.89,0004.27
2021-08-27 23:36:00,,0823.5,5.01,0.00,29.0,26.8,00.0,38.1,30.7,21.2,0001.9,0010.13,0004.89,0004.27
2021-08-27 23:37:00,,0823.5,4.99,0.00,29.0,27.2,00.0,38.1,30.8,21.4,0002.0,0010.19,0004.88,0004.28
2021-08-27 23:38:00,,0823.5,5.01,0.00,29.1,27.6,00.0,38.1,30.9,21.2,0001.7,0010.69,0004.84,0004.28
2021-08-27 23:39:00,,0823.6,5.00,0.00,29.1,27.9,00.0,38.1,31.1,21.1,0002.0,0011.14,0004.84,0004.28
2021-08-27 23:40:00,,0823.6,5.00,0.00,29.2,28.2,00.0,38.1,31.1,21.2,0002.2,0011.62,0004.86,0004.28
2021-08-27 23:41:00,,0823.6,5.00,0.00,29.2,27.6,00.0,38.1,31.0,21.8,0002.4,0011.11,0004.85,0004.29
2021-08-27 23:42:00,,0823.5,5.00,0.00,29.1,26.0,00.0,38.1,30.5,21.7,0002.4,0011.93,0004.82,0004.29
2021-08-27 23:43:00,,0823.5,5.00,0.00,29.0,25.8,00.0,38.1,30.4,21.0,0002.1,0012.64,0004.82,0004.29
2021-08-27 23:44:00,,0823.5,5.01,0.00,28.9,26.2,00.0,38.1,30.5,20.6,0002.2,0012.75,0004.84,0004.29
2021-08-27 23:45:00,,0823.5,4.99,0.00,28.9,26.6,00.0,38.1,30.6,20.4,0002.3,0013.42,0004.88,0004.30
2021-08-27 23:46:00,,0823.5,5.00,0.00,29.0,27.1,00.0,38.1,30.8,20.6,0002.4,0014.20,0004.90,0004.32
2021-08-27 23:47:00,,0823.5,4.99,0.00,29.0,27.5,00.0,38.1,30.9,20.7,0002.3,0013.65,0004.89,0004.32
2021-08-27 23:48:00,,0823.5,5.01,0.00,29.1,27.9,00.0,38.1,31.0,20.4,0002.1,0013.61,0004.89,0004.30
2021-08-27 23:49:00,,0823.6,5.00,0.00,29.1,28.1,00.0,38.1,31.1,20.4,0002.3,0013.45,0004.95,0004.30
2021-08-27 23:50:00,,0823.5,5.01,0.00,29.2,27.7,00.0,38.1,31.0,19.9,0002.4,0013.71,0004.96,0004.31
2021-08-27 23:51:00,,0823.5,4.99,0.00,29.1,26.0,00.0,38.1,30.5,19.9,0002.4,0013.35,0004.97,0004.32
2021-08-27 23:52:00,,0823.4,5.01,0.00,28.9,25.7,00.0,38.1,30.4,19.7,0002.5,0014.52,0004.97,0004.31
2021-08-27 23:53:00,,0823.4,5.00,0.00,28.9,26.1,00.0,38.1,30.5,19.9,0002.7,0013.49,0004.95,0004.29
2021-08-27 23:54:00,,0823.4,5.00,0.00,28.9,26.6,00.0,38.0,30.6,20.4,0002.9,0012.61,0004.90,0004.27
2021-08-27 23:55:00,,0823.4,5.00,0.00,28.9,27.0,00.0,38.0,30.7,20.8,0002.9,0012.49,0004.88,0004.27
2021-08-27 23:56:00,,0823.4,5.00,0.00,29.0,27.4,00.0,38.0,30.8,20.7,0002.7,0011.90,0004.83,0004.25
2021-08-27 23:57:00,,0823.4,4.99,0.00,29.0,27.8,00.0,38.0,30.9,20.5,0002.5,0011.21,0004.83,0004.25
2021-08-27 23:58:00,,0823.4,5.00,0.00,29.1,28.0,00.0,38.1,31.0,20.4,0002.5,0011.59,0004.90,0004.26
2021-08-27 23:59:00,,0823.4,5.00,0.00,29.1,26.8,00.0,38.1,30.7,20.3,0002.3,0011.91,0004.89,0004.26
